Tracking 35237 objects as of 6-Sep-2026
HD Live streaming from Space Station
objects crossing your sky now

DELTA 1 DEB


10-day predictions


NORAD ID: 8682
Int'l Code: 1975-004J
Launch date: January 22, 1975
Source: United States (US)
Launch site: AIR FORCE WESTERN TEST RANGE (AFWTR)

Note: This is SATELLITE DEBRIS
Your satellite tracking list
Your tracking list is empty




NASA's NSSDC Master Catalog

Two Line Element Set (TLE):
1  8682U 75004J   26249.03411478  .00000155  00000-0  78782-4 0  9998
2  8682  97.7328 267.2182 0149630 208.2237 151.0776 14.20869152661791
Source of the keplerian elements: AFSPC